• MPC Preparation (Info)

  • MPEC 2023-R184 : 2023 RV7

    The following Minor Planet Electronic Circular may be linked-to from your own Web pages, but must not otherwise be redistributed electronically.

    A form allowing access to any MPEC is at the bottom of this page.


    Read MPEC 2023-R183 Read MPEC 2023-R185


    M.P.E.C. 2023-R184                           Issued 2023 September 14, 11:36 UT
    
         The Minor Planet Electronic Circulars contain information on unusual
             minor planets, routine data on comets and natural satellites,
             and occasional editorial announcements.  They are published
        on behalf of Division F of the International Astronomical Union by the
              Minor Planet Center, Smithsonian Astrophysical Observatory,
                              Cambridge, MA 02138, U.S.A.
    			  
                 Prepared using the Tamkin Foundation Computer Network
    
                                  MPC@CFA.HARVARD.EDU
                URL https://www.minorplanetcenter.net/    ISSN 1523-6714
    
                                    2023 RV7                                 
    
    
    Observations:
         K23R07V  C2023 09 09.45213300 33 02.145+01 59 16.19         20.69GVER184F52
         K23R07V  C2023 09 09.45276800 33 02.329+01 59 17.33         21.06GVER184F52
         K23R07V  C2023 09 09.46243800 33 05.645+01 59 34.64         21.53GVER184F52
         K23R07V  C2023 09 09.47213200 33 08.904+01 59 52.37         21.47GVER184F52
         K23R07V* C2023 09 13.47379401 14 46.244+05 18 42.98         20.22wXER184F52
         K23R07V  C2023 09 13.48488001 14 57.254+05 19 37.06         20.63wXER184F52
         K23R07V  C2023 09 13.50713801 15 19.303+05 21 25.44         20.60wXER184F52
         K23R07V  C2023 09 13.56047301 16 13.170+05 25 48.46               VER184F51
         K23R07V  C2023 09 13.56137601 16 14.077+05 25 53.08         20.09GVER184F51
         K23R07V KB2023 09 13.91039601 23 00.22 +05 55 28.5          19.8 GVER184I93
         K23R07V KB2023 09 13.91644801 23 07.39 +05 56 02.2          20.3 GVER184I93
         K23R07V KB2023 09 13.92112001 23 12.94 +05 56 27.9          19.9 GVER184I93
         K23R07V 1C2023 09 14.10971 01 27 00.73 +06 14 19.0          20.7 VXER184033
         K23R07V 1C2023 09 14.11168 01 27 03.16 +06 14 29.8          20.4 VXER184033
         K23R07V 1C2023 09 14.11227 01 27 03.92 +06 14 33.9          20.2 VXER184033
         K23R07V KC2023 09 14.28222701 30 55.94 +06 32 09.1          20.3 VuER184H21
         K23R07V KC2023 09 14.28415501 30 58.51 +06 32 21.1          20.3 VuER184H21
         K23R07V KC2023 09 14.28608401 31 01.09 +06 32 33.1          20.2 VuER184H21
         K23R07V KC2023 09 14.28801201 31 03.67 +06 32 45.4          20.2 VuER184H21
    
    Observer details:
    033 Karl Schwarzschild Observatory, Tautenburg.  Observers S. Melnikov, C.
        Hoegner, F. Ludwig, M. Hartmann, B. Stecklum.  Measurer B. Stecklum.
        1.34-m f/3 Schmidt + CCD.
    F51 Pan-STARRS 1, Haleakala.  Observers J. Bulger, K. Chambers, T. Lowe, P.
        Minguez, A. Schultz, I. Smith.  Measurers S. Chastel, J. Fairlamb, M.
        Huber, Y. Ramanjooloo, R. Wainscoat, R. Weryk.  1.8-m Ritchey-Chretien +
        CCD.
    F52 Pan-STARRS 2, Haleakala.  Observers J. Bulger, K. Chambers, T. Dukes, T.
        Lowe, P. Minguez, A. Schultz, I. Smith.  Measurers S. Chastel, J.
        Fairlamb, M. Huber, Y. Ramanjooloo, R. Wainscoat, R. Weryk, K. Chambers,
        T. de Boer, J. Bulger, H. Gao, C.-C. Lin, T. Lowe, E. Magnier, P. Minguez,
        A. Schultz, I. Smith.  1.8-m Ritchey-Chretien + CCD.
    H21 Astronomical Research Observatory, Westfield.  Observer R. Holmes.
        Measurers T. Linder, R. Holmes, L. Horn.  0.76-m f/3.0 astrograph + CCD.
    I93 St Pardon de Conques.  Observer F. Losse.  0.40-m f/3.7 reflector + CMO.
    
    Orbital elements:
    2023 RV7                                                 Earth MOID = 0.0024 AU
    Epoch 2023 Sept. 13.0 TT = JDT 2460200.5                Veres                   
    M 341.36141              (2000.0)            P               Q                  
    n   0.35297219     Peri.  339.51578     +0.14814561     -0.98896213             
    a   1.9829376      Node   101.96468     +0.90772851     +0.13493024             
    e   0.6800556      Incl.    0.15260     +0.39253259     +0.06121879             
    P   2.79           H   25.10          G   0.15           U   9                  
    Residuals in seconds of arc
    230909 F52  0.2+  0.1+    230913 F51  0.2+  0.1-    230914 033  0.1-  0.2+
    230909 F52  0.3-  0.1+    230913 F51  0.0   0.0     230914 H21  0.2-  0.1+
    230909 F52  0.3+  0.1-    230913 I93  0.5+  0.4+    230914 H21  0.2-  0.1+
    230909 F52  0.2-  0.0     230913 I93  0.3+  0.2+    230914 H21  0.0   0.0
    230913 F52  0.0   0.1-    230913 I93  0.3+  0.3-    230914 H21  0.2+  0.2+
    230913 F52  0.5+  0.0     230914 033  0.3+  0.3+
    230913 F52  1.1-  0.4-    230914 033  0.3-  0.5-
    
    Ephemeris:
    2023 RV7                 a,e,i = 1.98, 0.68, 0                   q = 0.6344
    Date    TT    R. A. (2000) Decl.     Delta      r    Elong.  Phase     V
    2023 08 15    23 43 58.1 -02 09 00   0.4276  1.3887   146.1    24.0    25.1
    ...
    2023 08 30    00 00 56.8 -00 39 09   0.2316  1.2252   156.1    19.5    23.3
    ...
    2023 09 07    00 20 52.3 +01 00 09   0.1358  1.1355   158.6    18.9    22.0
    ...
    2023 09 13    01 07 05.9 +04 43 31   0.06855 1.0676   152.3    26.0    20.6
    2023 09 14    01 24 42.8 +06 05 26   0.05814 1.0563   148.7    29.7    20.3
    2023 09 15    01 49 48.4 +07 57 34   0.04828 1.0449   143.1    35.3    20.1
    ...
    2023 09 21    08 49 03.4 +14 01 45   0.04011 0.9772    46.7   131.6    23.9
    ...
    2023 09 29    10 50 22.2 +06 13 48   0.1253  0.8887    23.7   153.0    29.4
    ...
    2023 10 14    11 26 42.3 +03 13 49   0.3130  0.7396    29.0   139.2    28.7
    
    M. P. C. Staff               (C) Copyright 2023 MPC           M.P.E.C. 2023-R184
    


    Read MPEC 2023-R183 Read MPEC 2023-R185


    MPEC number:

    Enter an MPEC number in one of the following forms:

    • 1997-B01 (the full form)
    • J97B01 (the packed version of the full form)
    • B01 (the abbreviated form)